Horseshoe Bay, TX

2:08 PM MDT on April 25, 2017 (GMT -0600)
Horseshoe Bay

Weather History for KDZB - October, 2013

Change the Weather History Date:

Wednesday, October 16, 2013

  Actual Average (KBMQ) Record (KBMQ)
Temperature  
Mean Temperature 56 °F -  
Max Temperature 61 °F 75 °F 90 °F (2016)
Min Temperature 52 °F 55 °F 45 °F (2001)
Degree Days  
Heating Degree Days 8    
Growing Degree Days 6 (Base 50)    
Moisture  
Dew Point 55 °F    
Average Humidity 94    
Maximum Humidity 100    
Minimum Humidity 78    
Precipitation  
Precipitation 1.01 in - - ()
Sea Level Pressure  
Sea Level Pressure 30.06 in    
Wind  
Wind Speed 6 mph (NNW)    
Max Wind Speed 10 mph    
Max Gust Speed -    
Visibility 8 miles    
Events Rain    
Averages and records for this station are not official NWS values.
T = Trace of Precipitation, MM = Missing Value Source: NWS Daily Summary

Daily Weather History Graph

Daily Weather History Graph

Search for Another Location

Airport or City:

Trip Planner

Search our weather history database for the weather conditions in past years. The results will help you decide how hot, cold, wet, or windy it might be!

Date:

Astronomy

Oct. 16, 2013 Rise Set
Actual Time 6:36 AM MDT 6:00 PM MDT
Civil Twilight 6:12 AM MDT 6:25 PM MDT
Nautical Twilight 5:44 AM MDT 6:53 PM MDT
Astronomical Twilight 5:16 AM MDT 7:20 PM MDT
Moon 4:34 PM MDT (10/16) 4:14 AM MDT (10/16)
Length of Visible Light 12h 12m
Length of Day
11h 24m
Waxing Gibbous, 94% of the Moon is Illuminated
Oct 16
Waxing Gibbous
Oct 18
Full
Oct 26
Last Quarter
Nov 3
New
Nov 9
First Quarter

Hourly Weather History & Observations

Time (MDT) Temp. Dew Point Humidity Pressure Visibility Wind Dir Wind Speed Gust Speed Precip Events Conditions
12:15 AM 55.4 °F 55.4 °F 100% 30.01 in 5.0 mi NNW 8.1 mph - N/A   Light Drizzle
12:35 AM 55.4 °F 55.4 °F 100% 30.02 in 3.0 mi NNW 4.6 mph - N/A   Drizzle
12:55 AM 54.9 °F 54.9 °F 100% 30.03 in 4.0 mi North 6.9 mph - N/A   Heavy Drizzle
1:15 AM 54.7 °F 54.7 °F 100% 30.03 in 4.0 mi NNW 8.1 mph - 0.01 in   Heavy Drizzle
1:35 AM 54.7 °F 54.7 °F 100% 30.04 in 7.0 mi NNW 8.1 mph - 0.02 in   Drizzle
1:55 AM 54.1 °F 54.1 °F 100% 30.05 in 7.0 mi NW 6.9 mph - 0.02 in   Light Drizzle
2:15 AM 53.8 °F 53.8 °F 100% 30.05 in 5.0 mi NW 8.1 mph - 0.04 in Rain Rain
2:35 AM 53.6 °F 53.6 °F 100% 30.04 in 5.0 mi NNW 5.8 mph - 0.09 in Rain Rain
2:55 AM 53.6 °F 53.6 °F 100% 30.02 in 4.0 mi NNW 5.8 mph - 0.21 in Rain Rain
3:15 AM 53.8 °F 53.8 °F 100% 30.02 in 7.0 mi NNW 5.8 mph - 0.04 in Rain Rain
3:35 AM 53.6 °F 53.6 °F 100% 30.02 in 5.0 mi NNW 6.9 mph - 0.13 in Rain Rain
3:55 AM 53.4 °F 53.4 °F 100% 30.00 in 5.0 mi North 4.6 mph - 0.22 in Rain Heavy Rain
4:15 AM 53.6 °F 53.6 °F 100% 30.01 in 5.0 mi North 3.5 mph - 0.04 in Rain Rain
4:35 AM 53.2 °F 53.2 °F 100% 30.01 in 5.0 mi NNW 9.2 mph - 0.15 in Rain Heavy Rain
4:55 AM 52.7 °F 52.7 °F 100% 30.04 in 5.0 mi NNW 6.9 mph - 0.27 in Rain Heavy Rain
5:15 AM 52.7 °F 52.7 °F 100% 30.02 in 5.0 mi North 10.4 mph - 0.10 in Rain Rain
5:35 AM 52.7 °F 52.7 °F 100% 30.04 in 7.0 mi NNW 8.1 mph - 0.15 in Rain Rain
5:55 AM 52.7 °F 52.7 °F 100% 30.02 in 10.0 mi North 4.6 mph - 0.18 in Rain Rain
6:15 AM 52.7 °F 52.7 °F 100% 30.04 in 7.0 mi NNW 6.9 mph - 0.04 in Rain Rain
6:35 AM 52.9 °F 52.9 °F 100% 30.06 in 10.0 mi NW 4.6 mph - 0.04 in   Light Drizzle
6:55 AM 52.7 °F 52.7 °F 100% 30.06 in 10.0 mi NW 6.9 mph - 0.04 in   Light Drizzle
7:15 AM 52.7 °F 52.7 °F 100% 30.07 in 7.0 mi NW 5.8 mph - 0.02 in Rain Rain
7:35 AM 52.7 °F 52.7 °F 100% 30.08 in 10.0 mi NNW 5.8 mph - 0.02 in   Drizzle
7:55 AM 52.7 °F 52.7 °F 100% 30.09 in 7.0 mi NW 5.8 mph - 0.03 in Rain Light Rain
8:15 AM 52.9 °F 52.9 °F 100% 30.09 in 3.0 mi NNW 5.8 mph - N/A Rain Light Rain
8:35 AM 53.6 °F 53.6 °F 100% 30.10 in 4.0 mi NNW 4.6 mph - 0.02 in Rain Rain
8:55 AM 54.0 °F 54.0 °F 100% 30.10 in 7.0 mi NNW 6.9 mph - 0.02 in   Light Drizzle
9:15 AM 54.1 °F 54.1 °F 100% 30.10 in 10.0 mi NNW 6.9 mph - N/A   Overcast
9:35 AM 54.5 °F 54.5 °F 100% 30.10 in 2.5 mi NNW 8.1 mph - N/A Rain Light Rain
9:55 AM 54.9 °F 54.9 °F 100% 30.10 in 2.0 mi NNW 8.1 mph - N/A   Drizzle
10:15 AM 54.9 °F 54.9 °F 100% 30.11 in 2.5 mi NNW 6.9 mph - N/A   Drizzle
10:35 AM 54.5 °F 54.5 °F 100% 30.10 in 4.0 mi NNW 5.8 mph - N/A   Light Drizzle
10:55 AM 54.9 °F 54.9 °F 100% 30.10 in 4.0 mi NNW 6.9 mph - 0.01 in Rain Rain
11:15 AM 55.2 °F 55.2 °F 100% 30.10 in 7.0 mi North 6.9 mph - N/A Rain Rain
11:35 AM 55.2 °F 55.2 °F 100% 30.09 in 10.0 mi NNW 8.1 mph - N/A Rain Light Rain
11:55 AM 55.2 °F 55.2 °F 100% 30.09 in 10.0 mi NNW 8.1 mph - 0.01 in Rain Rain
12:15 PM 55.6 °F 55.6 °F 100% 30.08 in 10.0 mi North 8.1 mph - N/A   Drizzle
12:35 PM 55.8 °F 55.8 °F 100% 30.07 in 10.0 mi North 8.1 mph - N/A   Overcast
12:55 PM 56.1 °F 56.1 °F 100% 30.06 in 10.0 mi NNW 6.9 mph - N/A   Overcast
1:15 PM 56.3 °F 56.3 °F 100% 30.05 in 10.0 mi NNW 8.1 mph - N/A   Overcast
1:35 PM 56.3 °F 56.3 °F 100% 30.05 in 10.0 mi NNW 8.1 mph - N/A   Overcast
1:55 PM 56.8 °F 56.8 °F 100% 30.04 in 10.0 mi North 5.8 mph - N/A   Overcast
2:15 PM 57.2 °F 55.9 °F 96% 30.03 in 10.0 mi North 4.6 mph - N/A   Overcast
2:35 PM 57.9 °F 55.6 °F 92% 30.03 in 10.0 mi NNW 6.9 mph - N/A   Overcast
2:55 PM 58.3 °F 55.2 °F 90% 30.03 in 10.0 mi NNW 8.1 mph - N/A   Overcast
3:15 PM 58.5 °F 55.2 °F 89% 30.03 in 10.0 mi NNW 5.8 mph - N/A   Overcast
3:35 PM 59.2 °F 55.6 °F 88% 30.03 in 10.0 mi NNW 4.6 mph - N/A   Overcast
3:55 PM 59.4 °F 55.4 °F 87% 30.03 in 10.0 mi NNW 4.6 mph - N/A   Overcast
4:15 PM 60.3 °F 55.8 °F 85% 30.03 in 10.0 mi NNW 6.9 mph - N/A   Overcast
4:35 PM 60.8 °F 54.9 °F 81% 30.02 in 10.0 mi NNW 4.6 mph - N/A   Overcast
4:55 PM 60.8 °F 55.4 °F 82% 30.02 in 10.0 mi NW 3.5 mph - N/A   Overcast
5:15 PM 60.8 °F 55.6 °F 83% 30.02 in 10.0 mi NW 4.6 mph - N/A   Overcast
5:35 PM 61.2 °F 55.6 °F 82% 30.03 in 10.0 mi Calm Calm - N/A   Overcast
5:55 PM 60.4 °F 55.8 °F 85% 30.03 in 10.0 mi Calm Calm - N/A   Overcast
6:15 PM 59.9 °F 56.3 °F 88% 30.03 in 10.0 mi Calm Calm - N/A   Overcast
6:35 PM 59.9 °F 57.0 °F 90% 30.04 in 10.0 mi Calm Calm - N/A   Overcast
6:55 PM 60.3 °F 57.2 °F 90% 30.04 in 10.0 mi Calm Calm - N/A   Overcast
7:15 PM 60.8 °F 57.2 °F 88% 30.05 in 10.0 mi North 4.6 mph - N/A   Overcast
7:35 PM 61.7 °F 55.2 °F 79% 30.06 in 10.0 mi North 5.8 mph - N/A   Overcast
7:55 PM 61.7 °F 54.7 °F 78% 30.07 in 10.0 mi NNE 3.5 mph - N/A   Overcast
8:15 PM 61.3 °F 54.7 °F 79% 30.07 in 10.0 mi NNE 3.5 mph - N/A   Overcast
8:35 PM 61.2 °F 54.1 °F 78% 30.07 in 10.0 mi NNE 3.5 mph - N/A   Overcast
8:55 PM 60.8 °F 54.5 °F 80% 30.08 in 10.0 mi Calm Calm - N/A   Overcast
9:15 PM 60.1 °F 54.5 °F 82% 30.09 in 10.0 mi Calm Calm - N/A   Overcast
9:35 PM 59.9 °F 54.5 °F 82% 30.09 in 10.0 mi Calm Calm - N/A   Overcast
9:55 PM 59.2 °F 54.5 °F 84% 30.10 in 10.0 mi Calm Calm - N/A   Overcast
10:15 PM 58.3 °F 54.1 °F 86% 30.10 in 10.0 mi Calm Calm - N/A   Mostly Cloudy
10:35 PM 57.7 °F 54.0 °F 87% 30.10 in 10.0 mi Calm Calm - N/A   Scattered Clouds
10:55 PM 57.4 °F 53.6 °F 87% 30.10 in 10.0 mi Calm Calm - N/A   Mostly Cloudy
11:15 PM 57.7 °F 52.5 °F 83% 30.10 in 10.0 mi Calm Calm - N/A   Overcast
11:35 PM 57.9 °F 52.5 °F 82% 30.10 in 10.0 mi NNE 3.5 mph - N/A   Overcast
11:55 PM 58.1 °F 51.6 °F 79% 30.10 in 10.0 mi North 3.5 mph - N/A   Mostly Cloudy